Regional Weather Roundup
Issued by NWS

Home | Current Version | Previous Version | Text Only | Print | Product List | Glossary On
Versions: 1 2 3 4 5 6 7 8 9 10 11 12 13 14 15 16 17 18 19 20 21 22 23 24 25 26 27 28 29 30 31 32 33 34 35 36 37 38 39 40 41 42 43 44 45 46 47 48 49 50
000
ASUS44 KJAN 200810
RWRMS

MISSISSIPPI HOURLY WEATHER ROUNDUP
NATIONAL WEATHER SERVICE JACKSON MS
200 AM CST FRI JAN 20 2017

NOTE: "FAIR: INDICATES FEW OR NO CLOUDS BELOW 12,000 FEET WITH NO
SIGNIFICANT WEATHER AND/OR OBSTRUCTIONS TO VISIBILITY.

MSZ001>002-007>008-010>013-018>021-025>028-034>036-200900-
NORTHWEST MISSISSIPPI

CITY           SKY/WX    TMP DP  RH WIND       PRES   REMARKS
BATESVILLE     PTSUNNY   57  55  92 SW5       29.74S
CLARKSDALE     CLOUDY    57  57 100 CALM      29.72F
CLEVELAND      CLOUDY    56  56 100 S8        29.73S
GREENWOOD      MOCLDY    53  51  93 S6        29.75S
GREENVILLE     PTCLDY    56  53  90 S10       29.73S
OXFORD         CLOUDY    54  54 100 S3        29.76R
TUNICA         CLOUDY    54  54 100 S3        29.73R
WINONA         CLOUDY    53  53 100 CALM      29.76S FOG
$$

MSZ003>006-009-014>017-022>024-029>033-037>039-200900-
NORTHEAST MISSISSIPPI

CITY           SKY/WX    TMP DP  RH WIND       PRES   REMARKS
COLUMBUS AFB   NOT AVBL
CORINTH        CLOUDY    57  55  94 SW8       29.74S
GOLDN TRIANGLE CLOUDY    57  54  88 S3        29.74R
STARKVILLE     FOG       54  54 100 CALM      29.80R VSB 1/2
TUPELO         CLOUDY    56  54  93 S6        29.76R FOG
$$

MSZ040-058-200900-
CENTRAL MISSISSIPPI

CITY           SKY/WX    TMP DP  RH WIND       PRES   REMARKS
JACKSON INTL   FOG       55  55 100 S8        29.77S VSB 1/2
JACKSON HAWKNS FOG       56  55  97 S10       29.77S VSB 1/2
MADISON        PTSUNNY   54  52  94 CALM      29.77S
MERIDIAN KEY   CLOUDY    60  60 100 CALM      29.79F
MERIDIAN NAS   CLOUDY    61  57  87 E3        29.79F
RAYMOND        FOG       52  52 100 CALM      29.77S VSB 1/4
VICKSBURG VKS  PTSUNNY   57  55  94 S6        29.76S
$$

MSZ059>079-200900-
SOUTH MISSISSIPPI

CITY           SKY/WX    TMP DP  RH WIND       PRES   REMARKS
BROOKHAVEN     FOG       57  57 100 S9        29.81R VSB 1/4
HATTIESBURG    PTCLDY    61  60  97 S6        29.82S
LAUREL         CLOUDY    62  62 100 S6        29.82R
MCCOMB         CLOUDY    61  59  93 S8        29.79F FOG
NATCHEZ        PTCLDY    55  54  94 S5        29.77S
PINE BELT      CLOUDY    63  57  82 S6        29.83S
$$

MSZ080>082-200900-
COASTAL MISSISSIPPI

CITY           SKY/WX    TMP DP  RH WIND       PRES   REMARKS
BILOXI         PTCLDY    64 N/A N/A SW10      29.82F
PASCAGOULA     PTCLDY    64  62  93 CALM      29.84S
GULFPORT       PTCLDY    66  64  93 S3        29.82F
$$

LAZ007>009-015>016-023>026-200900-
NORTHEAST LOUISIANA

CITY           SKY/WX    TMP DP  RH WIND       PRES   REMARKS
BASTROP        CLOUDY    58  57  99 S6        29.74S
TALLULAH/VBURG MOCLDY    55  55 100 S3        29.76S
VIDALIA        FOG       57  57 100 S5        29.80S VSB 1
$$



USA.gov is the U.S. government's official web portal to all federal, state and local government web resources and services.